QPF
0.02 0.01 0.01 0.01 0.01 0.01 0.02 0.02 0.03 0.04 0.05 0.05 0.05 0.04 0.04 0.03 0.02 0.01 0.01 0.02 0.05 0.06 0.06 0.04 0.04 0.04 0.04 0.03 0.03 0.03 0.04 0.04 0.04 0.04 0.05 0.05 0.04 0.04 0.04 0.04 0.03 0.03 0.03 0.03
0.02 0.01 0.01 0.01 0.01 0.01 0.02 0.01 0.02 0.03 0.06 0.04 0.02 0.02 0.02 0.02 0.02 0.01 0.01 0.02 0.03 0.06 0.07 0.05 0.04 0.04 0.07 0.03 0.02 0.03 0.04 0.04 0.04 0.05 0.06 0.05 0.04 0.04 0.04 0.04 0.04 0.03 0.03 0.04
0.03 0.01 0.01 0.01 0.01 0.01 0.02 0.02 0.01 0.02 0.03 0.02 0.02 0.01 0.01 0.01 0.01 0.01 0.01 0.02 0.04 0.07 0.06 0.06 0.05 0.05 0.05 0.03 0.03 0.04 0.05 0.05 0.04 0.05 0.06 0.06 0.04 0.04 0.04 0.04 0.04 0.03 0.03 0.04
0.03 0.02 0.02 0.01 0.00 0.01 0.02 0.02 0.01 0.02 0.01 0.01 0.01 0.01 0.01 0.01 0.01 0.01 0.02 0.03 0.06 0.10 0.09 0.10 0.08 0.05 0.07 0.04 0.06 0.06 0.07 0.06 0.05 0.04 0.05 0.06 0.06 0.06 0.05 0.05 0.05 0.04 0.03 0.03
0.04 0.03 0.02 0.01 0.00 0.01 0.01 0.01 0.01 0.03 0.03 0.02 0.01 0.02 0.03 0.03 0.03 0.03 0.02 0.03 0.05 0.09 0.12 0.12 0.07 0.08 0.09 0.05 0.08 0.07 0.09 0.08 0.05 0.04 0.05 0.05 0.05 0.06 0.06 0.05 0.05 0.04 0.03 0.02
0.03 0.02 0.02 0.01 0.00 0.00 0.01 0.02 0.01 0.03 0.04 0.03 0.02 0.02 0.02 0.03 0.04 0.03 0.02 0.02 0.03 0.06 0.08 0.08 0.07 0.10 0.10 0.07 0.08 0.08 0.08 0.06 0.05 0.04 0.05 0.05 0.05 0.05 0.04 0.05 0.05 0.04 0.03 0.03
0.02 0.02 0.02 0.01 0.01 0.01 0.02 0.01 0.01 0.01 0.03 0.02 0.01 0.01 0.01 0.02 0.02 0.03 0.03 0.02 0.02 0.02 0.04 0.07 0.07 0.08 0.09 0.06 0.05 0.05 0.04 0.04 0.04 0.03 0.03 0.05 0.06 0.05 0.04 0.04 0.04 0.04 0.03 0.02
0.02 0.02 0.02 0.02 0.02 0.02 0.02 0.02 0.01 0.01 0.01 0.02 0.02 0.02 0.01 0.01 0.01 0.02 0.02 0.01 0.01 0.01 0.03 0.05 0.07 0.07 0.06 0.05 0.05 0.05 0.04 0.04 0.04 0.03 0.02 0.03 0.04 0.05 0.05 0.05 0.04 0.03 0.03 0.02
0.04 0.03 0.02 0.04 0.04 0.04 0.03 0.03 0.02 0.01 0.01 0.02 0.02 0.02 0.02 0.03 0.03 0.03 0.02 0.02 0.02 0.02 0.03 0.04 0.04 0.05 0.05 0.04 0.06 0.06 0.04 0.03 0.04 0.03 0.03 0.02 0.03 0.04 0.06 0.05 0.05 0.03 0.02 0.01
0.06 0.05 0.03 0.03 0.04 0.04 0.04 0.03 0.02 0.01 0.01 0.02 0.02 0.03 0.03 0.03 0.04 0.03 0.02 0.02 0.02 0.02 0.02 0.03 0.02 0.02 0.03 0.04 0.04 0.04 0.03 0.03 0.03 0.03 0.03 0.02 0.02 0.03 0.04 0.03 0.03 0.02 0.02 0.01
0.05 0.05 0.05 0.04 0.04 0.04 0.05 0.04 0.03 0.02 0.03 0.03 0.04 0.05 0.04 0.04 0.03 0.03 0.02 0.02 0.02 0.02 0.02 0.02 0.01 0.01 0.01 0.03 0.03 0.03 0.04 0.03 0.02 0.02 0.02 0.03 0.02 0.02 0.02 0.01 0.01 0.01 0.01 0.01
0.04 0.05 0.06 0.05 0.04 0.04 0.04 0.05 0.05 0.05 0.06 0.07 0.07 0.06 0.07 0.06 0.04 0.03 0.03 0.03 0.02 0.02 0.02 0.02 0.01 0.01 0.01 0.01 0.03 0.04 0.02 0.02 0.02 0.02 0.02 0.03 0.02 0.01 0.01 0.01 0.01 0.01 0.01 0.01
0.05 0.05 0.05 0.04 0.03 0.03 0.03 0.03 0.03 0.03 0.05 0.05 0.05 0.05 0.04 0.05 0.04 0.03 0.03 0.03 0.03 0.03 0.02 0.02 0.01 0.01 0.01 0.01 0.01 0.02 0.01 0.01 0.01 0.01 0.02 0.02 0.03 0.03 0.03 0.02 0.02 0.03 0.02 0.02
0.05 0.06 0.04 0.03 0.02 0.02 0.03 0.04 0.05 0.06 0.06 0.05 0.04 0.03 0.03 0.03 0.03 0.03 0.03 0.03 0.04 0.03 0.02 0.02 0.01 0.01 0.01 0.01 0.01 0.01 0.00 0.01 0.01 0.01 0.01 0.02 0.03 0.03 0.04 0.04 0.03 0.02 0.02 0.02
0.04 0.05 0.05 0.03 0.03 0.02 0.03 0.05 0.06 0.05 0.04 0.03 0.03 0.02 0.02 0.03 0.04 0.03 0.04 0.03 0.03 0.03 0.02 0.02 0.01 0.01 0.01 0.01 0.01 0.01 0.00 0.01 0.01 0.02 0.02 0.02 0.02 0.03 0.03 0.03 0.03 0.02 0.02 0.02
0.03 0.04 0.05 0.05 0.04 0.04 0.05 0.05 0.04 0.03 0.03 0.03 0.03 0.03 0.04 0.04 0.03 0.04 0.06 0.04 0.03 0.03 0.03 0.02 0.02 0.02 0.02 0.01 0.01 0.01 0.01 0.00 0.01 0.02 0.01 0.01 0.02 0.02 0.03 0.03 0.03 0.03 0.02 0.03
0.04 0.03 0.05 0.07 0.06 0.05 0.04 0.03 0.02 0.04 0.05 0.04 0.04 0.04 0.04 0.04 0.04 0.07 0.09 0.09 0.05 0.03 0.03 0.03 0.02 0.02 0.01 0.01 0.01 0.01 0.01 0.01 0.02 0.01 0.01 0.01 0.02 0.02 0.02 0.02 0.02 0.02 0.02 0.02
0.06 0.05 0.05 0.05 0.05 0.04 0.03 0.03 0.03 0.05 0.06 0.04 0.05 0.05 0.05 0.06 0.07 0.10 0.12 0.10 0.06 0.04 0.02 0.02 0.02 0.02 0.01 0.01 0.01 0.01 0.01 0.02 0.02 0.02 0.02 0.02 0.03 0.03 0.03 0.02 0.02 0.02 0.02 0.02
0.05 0.05 0.05 0.05 0.04 0.04 0.03 0.02 0.02 0.05 0.07 0.07 0.07 0.07 0.07 0.07 0.09 0.10 0.10 0.08 0.06 0.04 0.03 0.03 0.03 0.02 0.01 0.01 0.02 0.02 0.02 0.02 0.02 0.02 0.03 0.03 0.03 0.04 0.04 0.03 0.03 0.03 0.03 0.02
0.04 0.04 0.04 0.04 0.05 0.06 0.05 0.03 0.02 0.02 0.04 0.06 0.07 0.06 0.06 0.06 0.10 0.10 0.08 0.05 0.04 0.03 0.03 0.03 0.02 0.02 0.01 0.01 0.01 0.02 0.02 0.03 0.03 0.03 0.03 0.02 0.03 0.03 0.02 0.02 0.02 0.02 0.03 0.03
0.03 0.03 0.03 0.03 0.03 0.04 0.04 0.03 0.02 0.01 0.01 0.03 0.06 0.06 0.05 0.05 0.07 0.07 0.05 0.03 0.02 0.02 0.03 0.04 0.02 0.01 0.01 0.01 0.01 0.01 0.01 0.01 0.02 0.02 0.01 0.02 0.02 0.02 0.02 0.01 0.01 0.01 0.01 0.02
0.02 0.02 0.02 0.02 0.02 0.03 0.02 0.02 0.02 0.01 0.02 0.04 0.05 0.04 0.04 0.04 0.04 0.04 0.03 0.02 0.02 0.02 0.02 0.02 0.02 0.02 0.01 0.01 0.01 0.01 0.01 0.01 0.01 0.01 0.01 0.01 0.01 0.01 0.01 0.01 0.01 0.01 0.01 0.00
0.01 0.02 0.01 0.02 0.02 0.02 0.02 0.02 0.01 0.02 0.02 0.03 0.02 0.02 0.02 0.02 0.02 0.03 0.03 0.03 0.02 0.02 0.01 0.02 0.02 0.03 0.02 0.01 0.01 0.01 0.01 0.01 0.01 0.01 0.01 0.01 0.01 0.01 0.01 0.01 0.01 0.01 0.01 0.01
0.01 0.01 0.01 0.01 0.01 0.01 0.02 0.02 0.02 0.02 0.02 0.02 0.02 0.01 0.02 0.02 0.02 0.02 0.02 0.02 0.02 0.02 0.01 0.01 0.01 0.02 0.02 0.02 0.02 0.02 0.03 0.03 0.03 0.03 0.02 0.02 0.01 0.01 0.01 0.01 0.02 0.02 0.02 0.02
0.01 0.01 0.01 0.01 0.01 0.01 0.01 0.01 0.01 0.01 0.01 0.01 0.01 0.01 0.01 0.01 0.02 0.02 0.01 0.01 0.02 0.01 0.01 0.01 0.01 0.01 0.01 0.02 0.02 0.03 0.03 0.04 0.04 0.04 0.04 0.04 0.04 0.03 0.02 0.02 0.02 0.02 0.02 0.02
0.01 0.00 0.00 0.00 0.00 0.00 0.00 0.00 0.00 0.00 0.01 0.01 0.01 0.00 0.00 0.01 0.01 0.01 0.01 0.02 0.02 0.01 0.01 0.01 0.01 0.01 0.01 0.01 0.01 0.02 0.02 0.03 0.03 0.03 0.02 0.02 0.02 0.02 0.02 0.02 0.02 0.02 0.02 0.01
0.01 0.01 0.01 0.00 0.00 0.00 0.00 0.00 0.00 0.00 0.00 0.00 0.00 0.00 0.00 0.01 0.01 0.01 0.01 0.01 0.01 0.01 0.01 0.01 0.01 0.01 0.01 0.01 0.01 0.01 0.02 0.02 0.02 0.01 0.01 0.01 0.01 0.01 0.01 0.01 0.01 0.01 0.02 0.02
MSLP
1001.11 1001.21 1001.37 1001.57 1001.76 1001.90 1001.94 1001.86 1001.67 1001.40 1001.09 1000.82 1000.67 1000.69 1000.91 1001.34 1001.93 1002.64 1003.39 1004.11 1004.73 1005.23 1005.58 1005.83 1006.01 1006.18 1006.39 1006.69 1007.09 1007.57 1008.10 1008.63 1009.12 1009.51 1009.78 1009.92 1009.95 1009.90 1009.83 1009.76 1009.72 1009.73 1009.79 1009.86
1000.91 1001.02 1001.18 1001.37 1001.53 1001.64 1001.65 1001.56 1001.37 1001.12 1000.88 1000.70 1000.65 1000.79 1001.13 1001.68 1002.38 1003.18 1004.01 1004.78 1005.44 1005.95 1006.31 1006.54 1006.69 1006.82 1006.98 1007.22 1007.55 1007.96 1008.43 1008.90 1009.34 1009.70 1009.94 1010.05 1010.06 1009.99 1009.88 1009.76 1009.66 1009.60 1009.58 1009.58
1001.03 1001.23 1001.46 1001.69 1001.88 1001.99 1002.00 1001.90 1001.71 1001.48 1001.25 1001.11 1001.11 1001.30 1001.70 1002.29 1003.04 1003.88 1004.73 1005.53 1006.21 1006.73 1007.09 1007.32 1007.45 1007.55 1007.67 1007.85 1008.11 1008.45 1008.84 1009.24 1009.61 1009.90 1010.09 1010.17 1010.14 1010.03 1009.88 1009.71 1009.55 1009.43 1009.34 1009.27
1001.62 1001.95 1002.29 1002.61 1002.87 1003.02 1003.04 1002.94 1002.74 1002.49 1002.25 1002.09 1002.08 1002.26 1002.64 1003.22 1003.94 1004.76 1005.59 1006.37 1007.03 1007.54 1007.90 1008.12 1008.24 1008.32 1008.40 1008.52 1008.72 1008.97 1009.28 1009.59 1009.87 1010.09 1010.21 1010.23 1010.15 1009.99 1009.79 1009.58 1009.39 1009.22 1009.08 1008.96
1002.71 1003.20 1003.68 1004.11 1004.43 1004.62 1004.66 1004.56 1004.34 1004.06 1003.78 1003.57 1003.51 1003.62 1003.93 1004.42 1005.07 1005.81 1006.56 1007.28 1007.89 1008.36 1008.69 1008.89 1008.99 1009.05 1009.09 1009.17 1009.30 1009.48 1009.69 1009.91 1010.10 1010.23 1010.27 1010.22 1010.08 1009.88 1009.65 1009.41 1009.19 1009.00 1008.84 1008.71
1004.25 1004.89 1005.49 1006.01 1006.39 1006.61 1006.66 1006.54 1006.29 1005.97 1005.64 1005.37 1005.22 1005.24 1005.44 1005.82 1006.34 1006.95 1007.59 1008.19 1008.72 1009.12 1009.40 1009.57 1009.65 1009.68 1009.70 1009.73 1009.81 1009.92 1010.05 1010.17 1010.27 1010.31 1010.27 1010.16 1009.98 1009.75 1009.49 1009.24 1009.02 1008.83 1008.69 1008.57
1006.12 1006.86 1007.53 1008.09 1008.49 1008.71 1008.74 1008.59 1008.31 1007.95 1007.57 1007.24 1007.02 1006.94 1007.03 1007.27 1007.64 1008.10 1008.59 1009.06 1009.46 1009.77 1009.98 1010.10 1010.15 1010.16 1010.15 1010.16 1010.19 1010.24 1010.31 1010.36 1010.38 1010.34 1010.24 1010.08 1009.86 1009.61 1009.36 1009.12 1008.93 1008.77 1008.66 1008.58
1008.16 1008.92 1009.58 1010.11 1010.47 1010.64 1010.63 1010.44 1010.13 1009.75 1009.34 1008.97 1008.69 1008.53 1008.51 1008.63 1008.85 1009.15 1009.48 1009.80 1010.07 1010.27 1010.40 1010.46 1010.47 1010.46 1010.44 1010.42 1010.43 1010.44 1010.46 1010.45 1010.41 1010.32 1010.17 1009.98 1009.75 1009.50 1009.27 1009.07 1008.92 1008.82 1008.76 1008.74
1010.17 1010.85 1011.42 1011.84 1012.10 1012.19 1012.11 1011.88 1011.55 1011.16 1010.75 1010.37 1010.07 1009.86 1009.77 1009.77 1009.87 1010.02 1010.20 1010.36 1010.50 1010.59 1010.63 1010.64 1010.61 1010.58 1010.55 1010.53 1010.52 1010.51 1010.50 1010.45 1010.37 1010.25 1010.07 1009.86 1009.63 1009.41 1009.21 1009.06 1008.96 1008.92 1008.93 1008.97
1011.99 1012.50 1012.89 1013.15 1013.26 1013.23 1013.07 1012.81 1012.47 1012.09 1011.71 1011.36 1011.07 1010.85 1010.71 1010.65 1010.64 1010.66 1010.70 1010.73 1010.75 1010.74 1010.70 1010.65 1010.60 1010.55 1010.52 1010.49 1010.48 1010.47 1010.43 1010.36 1010.26 1010.10 1009.91 1009.70 1009.48 1009.28 1009.12 1009.02 1008.98 1009.01 1009.07 1009.16
1013.50 1013.78 1013.94 1013.99 1013.93 1013.77 1013.53 1013.24 1012.91 1012.57 1012.25 1011.96 1011.71 1011.51 1011.36 1011.24 1011.16 1011.08 1011.01 1010.93 1010.84 1010.74 1010.65 1010.55 1010.48 1010.43 1010.39 1010.38 1010.36 1010.34 1010.28 1010.20 1010.06 1009.89 1009.68 1009.46 1009.25 1009.08 1008.95 1008.89 1008.90 1008.97 1009.07 1009.19
1014.65 1014.66 1014.58 1014.42 1014.19 1013.92 1013.62 1013.32 1013.02 1012.74 1012.49 1012.26 1012.07 1011.90 1011.75 1011.61 1011.47 1011.32 1011.17 1011.00 1010.83 1010.68 1010.53 1010.42 1010.33 1010.27 1010.24 1010.22 1010.20 1010.16 1010.09 1009.97 1009.81 1009.60 1009.38 1009.14 1008.93 1008.76 1008.66 1008.62 1008.65 1008.74 1008.86 1008.98
1015.46 1015.22 1014.92 1014.58 1014.23 1013.87 1013.54 1013.25 1012.99 1012.78 1012.60 1012.44 1012.30 1012.16 1012.02 1011.85 1011.67 1011.46 1011.24 1011.02 1010.80 1010.60 1010.43 1010.30 1010.21 1010.15 1010.12 1010.10 1010.06 1009.99 1009.88 1009.72 1009.51 1009.27 1009.00 1008.74 1008.51 1008.34 1008.23 1008.20 1008.23 1008.31 1008.42 1008.53
1015.99 1015.57 1015.11 1014.65 1014.22 1013.83 1013.50 1013.24 1013.03 1012.87 1012.75 1012.64 1012.53 1012.40 1012.24 1012.05 1011.82 1011.57 1011.30 1011.03 1010.78 1010.56 1010.38 1010.25 1010.16 1010.11 1010.07 1010.03 1009.96 1009.85 1009.69 1009.47 1009.20 1008.90 1008.59 1008.29 1008.03 1007.84 1007.71 1007.67 1007.68 1007.74 1007.82 1007.89
1016.35 1015.82 1015.29 1014.78 1014.33 1013.95 1013.65 1013.43 1013.27 1013.15 1013.05 1012.96 1012.84 1012.69 1012.50 1012.26 1011.99 1011.69 1011.38 1011.08 1010.81 1010.59 1010.41 1010.29 1010.21 1010.15 1010.10 1010.03 1009.92 1009.75 1009.53 1009.24 1008.90 1008.54 1008.17 1007.83 1007.54 1007.31 1007.17 1007.10 1007.09 1007.12 1007.15 1007.17
1016.65 1016.09 1015.55 1015.07 1014.66 1014.33 1014.08 1013.90 1013.76 1013.66 1013.56 1013.44 1013.28 1013.08 1012.82 1012.52 1012.19 1011.84 1011.50 1011.18 1010.91 1010.69 1010.52 1010.41 1010.33 1010.26 1010.19 1010.08 1009.92 1009.69 1009.39 1009.03 1008.62 1008.19 1007.77 1007.39 1007.07 1006.82 1006.66 1006.57 1006.53 1006.53 1006.52 1006.49
1016.97 1016.45 1015.97 1015.56 1015.22 1014.96 1014.76 1014.62 1014.49 1014.37 1014.23 1014.05 1013.82 1013.53 1013.20 1012.82 1012.43 1012.03 1011.66 1011.32 1011.05 1010.84 1010.68 1010.57 1010.49 1010.41 1010.30 1010.15 1009.92 1009.63 1009.25 1008.82 1008.35 1007.86 1007.40 1006.99 1006.65 1006.39 1006.22 1006.11 1006.06 1006.03 1006.00 1005.93
1017.35 1016.93 1016.55 1016.23 1015.98 1015.79 1015.64 1015.50 1015.36 1015.20 1014.99 1014.72 1014.40 1014.01 1013.58 1013.13 1012.67 1012.23 1011.83 1011.49 1011.21 1011.01 1010.86 1010.75 1010.65 1010.54 1010.40 1010.19 1009.90 1009.53 1009.09 1008.59 1008.07 1007.54 1007.05 1006.62 1006.27 1006.02 1005.84 1005.74 1005.68 1005.64 1005.59 1005.49
1017.83 1017.51 1017.23 1017.01 1016.84 1016.70 1016.57 1016.42 1016.24 1016.01 1015.72 1015.36 1014.93 1014.45 1013.93 1013.40 1012.89 1012.42 1012.00 1011.65 1011.38 1011.17 1011.02 1010.90 1010.78 1010.63 1010.43 1010.16 1009.80 1009.37 1008.86 1008.31 1007.74 1007.19 1006.68 1006.25 1005.91 1005.66 1005.50 1005.40 1005.35 1005.31 1005.24 1005.13
1018.38 1018.15 1017.96 1017.81 1017.68 1017.57 1017.43 1017.25 1017.02 1016.71 1016.33 1015.88 1015.35 1014.79 1014.20 1013.62 1013.08 1012.58 1012.15 1011.80 1011.53 1011.32 1011.15 1011.00 1010.84 1010.64 1010.38 1010.04 1009.62 1009.12 1008.56 1007.96 1007.36 1006.78 1006.27 1005.84 1005.50 1005.27 1005.12 1005.03 1004.98 1004.94 1004.87 1004.76
1018.96 1018.79 1018.65 1018.53 1018.43 1018.30 1018.13 1017.91 1017.61 1017.23 1016.77 1016.23 1015.64 1015.02 1014.39 1013.78 1013.22 1012.71 1012.29 1011.93 1011.66 1011.43 1011.23 1011.04 1010.83 1010.57 1010.24 1009.83 1009.34 1008.78 1008.17 1007.53 1006.90 1006.31 1005.79 1005.36 1005.03 1004.80 1004.65 1004.56 1004.51 1004.46 1004.39 1004.27
1019.52 1019.37 1019.25 1019.13 1019.01 1018.85 1018.64 1018.35 1017.99 1017.54 1017.02 1016.43 1015.80 1015.15 1014.50 1013.88 1013.32 1012.82 1012.40 1012.04 1011.75 1011.50 1011.26 1011.02 1010.75 1010.42 1010.02 1009.54 1008.99 1008.37 1007.72 1007.05 1006.40 1005.79 1005.26 1004.83 1004.49 1004.24 1004.08 1003.97 1003.90 1003.84 1003.75 1003.63
1020.02 1019.87 1019.73 1019.59 1019.42 1019.21 1018.94 1018.60 1018.18 1017.68 1017.12 1016.50 1015.85 1015.19 1014.55 1013.94 1013.39 1012.90 1012.48 1012.12 1011.80 1011.52 1011.23 1010.93 1010.59 1010.20 1009.73 1009.19 1008.58 1007.92 1007.23 1006.54 1005.88 1005.26 1004.72 1004.26 1003.90 1003.63 1003.44 1003.30 1003.19 1003.09 1002.97 1002.84
1020.44 1020.27 1020.10 1019.91 1019.70 1019.43 1019.11 1018.71 1018.25 1017.71 1017.12 1016.49 1015.84 1015.19 1014.56 1013.97 1013.43 1012.95 1012.52 1012.14 1011.80 1011.47 1011.13 1010.77 1010.37 1009.91 1009.39 1008.80 1008.15 1007.47 1006.76 1006.06 1005.39 1004.76 1004.20 1003.73 1003.34 1003.03 1002.78 1002.59 1002.43 1002.28 1002.14 1001.97
1020.79 1020.59 1020.39 1020.16 1019.90 1019.58 1019.21 1018.77 1018.26 1017.70 1017.10 1016.46 1015.82 1015.17 1014.56 1013.98 1013.44 1012.96 1012.51 1012.10 1011.72 1011.34 1010.95 1010.53 1010.07 1009.56 1009.00 1008.38 1007.72 1007.03 1006.33 1005.63 1004.96 1004.34 1003.77 1003.27 1002.85 1002.49 1002.19 1001.94 1001.72 1001.52 1001.33 1001.14
1021.10 1020.88 1020.65 1020.38 1020.08 1019.72 1019.31 1018.83 1018.30 1017.72 1017.10 1016.46 1015.82 1015.18 1014.56 1013.98 1013.43 1012.92 1012.44 1011.99 1011.56 1011.12 1010.68 1010.21 1009.71 1009.17 1008.59 1007.97 1007.31 1006.64 1005.96 1005.29 1004.63 1004.02 1003.45 1002.94 1002.49 1002.09 1001.74 1001.43 1001.15 1000.90 1000.66 1000.44
1021.41 1021.18 1020.93 1020.64 1020.31 1019.92 1019.48 1018.97 1018.41 1017.81 1017.18 1016.53 1015.87 1015.22 1014.58 1013.97 1013.39 1012.84 1012.32 1011.81 1011.32 1010.83 1010.34 1009.83 1009.30 1008.74 1008.16 1007.56 1006.93 1006.29 1005.65 1005.02 1004.40 1003.81 1003.25 1002.74 1002.26 1001.83 1001.43 1001.07 1000.75 1000.45 1000.18 999.94
Thickness
5684 5690 5691 5691 5693 5696 5695 5700 5699 5705 5706 5708 5711 5710 5711 5712 5711 5711 5710 5710 5710 5709 5708 5708 5707 5707 5706 5704 5702 5700 5697 5693 5691 5689 5686 5684 5683 5683 5683 5682 5682 5681 5679 5679
5669 5678 5682 5683 5688 5691 5692 5695 5697 5699 5699 5708 5709 5708 5706 5705 5704 5703 5703 5703 5703 5702 5701 5700 5700 5700 5699 5697 5695 5694 5691 5688 5686 5684 5682 5680 5679 5678 5678 5677 5677 5676 5674 5674
5661 5671 5671 5669 5681 5684 5686 5690 5691 5690 5695 5700 5698 5696 5698 5698 5698 5697 5697 5698 5696 5696 5695 5694 5694 5694 5693 5692 5689 5687 5685 5683 5682 5680 5678 5677 5676 5675 5673 5672 5671 5670 5669 5669
5658 5657 5648 5670 5682 5683 5682 5683 5685 5685 5688 5691 5690 5692 5694 5695 5694 5692 5692 5691 5690 5689 5689 5688 5687 5687 5687 5686 5684 5682 5680 5679 5677 5676 5674 5673 5671 5669 5668 5667 5665 5664 5663 5663
5650 5651 5657 5663 5669 5672 5671 5671 5676 5677 5680 5683 5685 5685 5687 5689 5689 5687 5686 5685 5684 5683 5682 5680 5679 5680 5680 5679 5678 5677 5675 5674 5673 5672 5670 5668 5666 5664 5663 5661 5659 5659 5658 5657
5644 5643 5644 5654 5663 5668 5664 5660 5667 5669 5670 5674 5676 5674 5677 5679 5680 5679 5678 5678 5677 5676 5675 5672 5671 5672 5671 5671 5671 5670 5669 5669 5668 5667 5665 5663 5660 5658 5657 5656 5655 5654 5652 5651
5635 5637 5643 5648 5654 5657 5647 5651 5656 5660 5661 5664 5664 5666 5668 5670 5670 5670 5670 5669 5669 5668 5666 5664 5663 5663 5662 5662 5663 5663 5664 5663 5662 5661 5659 5658 5655 5653 5651 5651 5649 5648 5646 5646
5630 5629 5630 5638 5643 5640 5639 5644 5646 5649 5652 5654 5655 5656 5659 5660 5661 5662 5661 5661 5660 5659 5658 5656 5655 5655 5654 5654 5655 5656 5656 5656 5655 5654 5654 5653 5650 5648 5647 5645 5643 5642 5641 5640
5621 5621 5623 5628 5629 5632 5633 5634 5637 5640 5642 5644 5646 5648 5650 5652 5653 5653 5652 5652 5652 5651 5650 5649 5648 5648 5647 5646 5647 5647 5647 5647 5647 5646 5646 5645 5644 5642 5641 5640 5641 5640 5639 5638
5608 5612 5615 5618 5621 5622 5624 5625 5629 5632 5634 5636 5637 5640 5642 5644 5644 5644 5645 5644 5645 5644 5643 5642 5641 5641 5640 5639 5639 5639 5638 5639 5639 5639 5639 5639 5638 5638 5637 5636 5636 5636 5635 5634
5599 5603 5606 5608 5610 5613 5616 5618 5621 5623 5626 5627 5629 5631 5632 5634 5636 5636 5637 5637 5637 5636 5635 5635 5634 5633 5633 5632 5631 5631 5631 5632 5633 5633 5634 5632 5632 5631 5631 5630 5630 5629 5629 5629
5593 5596 5596 5597 5602 5605 5606 5608 5611 5613 5615 5618 5620 5622 5625 5627 5628 5628 5628 5628 5628 5627 5627 5627 5626 5626 5625 5624 5624 5624 5625 5626 5629 5629 5629 5628 5627 5626 5621 5621 5620 5619 5618 5618
5587 5589 5589 5591 5594 5597 5599 5601 5604 5606 5608 5610 5613 5615 5617 5618 5618 5619 5619 5619 5619 5619 5619 5619 5619 5618 5618 5618 5618 5618 5619 5620 5622 5624 5624 5624 5624 5623 5621 5616 5613 5612 5611 5610
5581 5582 5582 5585 5587 5591 5593 5596 5598 5600 5602 5604 5606 5608 5610 5610 5610 5611 5611 5611 5612 5612 5612 5612 5612 5611 5611 5611 5611 5611 5613 5613 5615 5616 5618 5619 5619 5619 5619 5618 5616 5613 5607 5603
5578 5579 5580 5582 5583 5585 5588 5590 5592 5594 5595 5597 5599 5600 5602 5602 5602 5602 5603 5604 5604 5604 5604 5604 5604 5603 5604 5605 5604 5605 5606 5608 5609 5611 5612 5614 5615 5615 5615 5614 5614 5612 5609 5603
5576 5576 5576 5577 5578 5580 5582 5584 5585 5587 5588 5589 5592 5593 5594 5595 5595 5595 5596 5596 5595 5595 5595 5595 5595 5596 5597 5597 5598 5598 5599 5598 5600 5604 5606 5608 5609 5610 5609 5609 5608 5607 5605 5603
5572 5572 5572 5572 5573 5576 5577 5578 5579 5580 5581 5583 5584 5585 5586 5586 5586 5587 5588 5588 5588 5587 5587 5587 5587 5589 5589 5589 5591 5593 5594 5594 5592 5597 5600 5601 5602 5602 5602 5602 5602 5600 5599 5596
5570 5569 5569 5569 5570 5571 5572 5573 5574 5574 5575 5576 5578 5579 5579 5578 5578 5579 5579 5580 5580 5579 5579 5579 5580 5581 5582 5582 5583 5586 5587 5589 5590 5591 5592 5593 5593 5593 5594 5595 5595 5593 5593 5592
5564 5564 5564 5564 5565 5566 5566 5567 5567 5568 5569 5570 5570 5570 5571 5571 5571 5571 5572 5572 5572 5571 5571 5571 5569 5572 5574 5575 5575 5578 5581 5582 5583 5584 5584 5582 5584 5586 5586 5587 5587 5586 5586 5585
5559 5558 5559 5559 5560 5560 5559 5560 5561 5561 5562 5562 5563 5563 5562 5562 5563 5563 5563 5563 5563 5564 5563 5563 5564 5566 5567 5569 5568 5573 5574 5575 5576 5577 5578 5579 5579 5579 5579 5579 5579 5578 5578 5577
5552 5552 5553 5554 5554 5554 5554 5553 5553 5554 5554 5555 5555 5554 5554 5554 5555 5555 5556 5556 5555 5555 5555 5554 5557 5560 5561 5561 5560 5566 5567 5568 5569 5569 5570 5571 5572 5572 5571 5571 5570 5570 5569 5569
5546 5546 5546 5547 5547 5547 5547 5547 5547 5547 5547 5547 5547 5547 5547 5547 5547 5547 5547 5547 5547 5545 5548 5550 5552 5551 5552 5552 5556 5559 5561 5561 5562 5562 5562 5563 5563 5563 5563 5563 5562 5562 5562 5562
5540 5540 5540 5540 5540 5540 5540 5540 5540 5540 5540 5540 5540 5540 5541 5541 5541 5542 5541 5540 5540 5538 5540 5542 5541 5540 5540 5545 5550 5552 5554 5554 5554 5554 5554 5555 5555 5555 5555 5555 5555 5555 5555 5554
5534 5534 5534 5534 5534 5534 5533 5534 5534 5534 5534 5533 5534 5534 5534 5535 5535 5535 5534 5531 5530 5530 5533 5532 5531 5532 5532 5539 5543 5545 5546 5546 5546 5546 5547 5547 5547 5548 5547 5547 5547 5547 5547 5546
5529 5528 5528 5528 5528 5528 5528 5527 5528 5528 5529 5529 5529 5529 5529 5529 5528 5528 5527 5526 5524 5524 5527 5527 5525 5526 5530 5534 5536 5537 5538 5538 5538 5538 5538 5538 5539 5539 5539 5539 5539 5538 5538 5538
5524 5524 5524 5522 5522 5522 5523 5524 5524 5524 5525 5524 5524 5524 5523 5522 5522 5521 5521 5521 5521 5519 5521 5523 5524 5523 5526 5528 5528 5528 5528 5528 5528 5528 5529 5529 5529 5529 5530 5530 5529 5529 5529 5529
5520 5519 5518 5518 5518 5518 5518 5518 5519 5519 5519 5519 5518 5519 5518 5518 5517 5517 5516 5516 5516 5516 5517 5517 5518 5519 5520 5521 5521 5520 5520 5520 5520 5520 5520 5520 5521 5521 5521 5521 5521 5521 5521 5522